{"data":{"norad_id":57301,"epoch":"2026-09-20T03:19:21.489024Z","epoch_age_seconds":155476,"freshness":"FRESH","line1":"1 57301U 23096M   26263.13844316  .00000302  00000+0  20483-4 0  9990","line2":"2 57301  43.0018 205.2105 0000808 278.5253  81.5507 15.27575960176453","mean_motion":15.2757596,"eccentricity":8.08e-5,"inclination_deg":43.0018,"raan_deg":205.2105,"arg_perigee_deg":278.5253,"mean_anomaly_deg":81.5507,"bstar":2.0483e-5,"rev_number":17645,"period_min":94.266998022147,"perigee_km":482.50680846568,"apogee_km":483.61557809372,"semimajor_km":6861.1981932797,"source":"CELESTRAK","updated_at":"2026-09-21T09:00:33.595089Z"}}